STARLINK-31358, 58977

Orbit data source: Space-Track

STARLINK-31358, 58977 is a payload satellite owned by SpaceX/Seattle (US) in LEO that was launched on Thu, 15 Feb 2024 UTC via an FALCON 9 launch vehicle from the Air Force Western Test Range (AFWTR). Payload-class satellites include a variety of spacecraft equipped with specific instruments for various scientific and technological missions. These include communications satellites like Starlink; space stations such as the ISS; scientific satellites like the Hubble; Earth observation satellites from companies like Planet Labs, Umbra, and HawkEye 360; GPS; miniature CubeSats for education and research; and military/defense satellites.

Loading next visibility...
Identifier
58977, 2024-031N
Orbit
LEO
Country
Flag of USUS
Related business
Manufacturer
SpaceX/Seattle
Mission
Operational Commercial Communications
Bus & Motor
STARLINK V2M, Unknown motor
Mass
730 kg wet, ~700 kg dry
Launch date (UTC)
2024-02-15 (2 years ago)
Launch vehicle
FALCON 9
Launch site
Air Force Western Test Range (AFWTR)
Object type
Payload
Rocket body
Debris
Shape & HBR
Box + 2 Pan, 17.7 m
Radar Cross Section
33.884 m², Large (>1 m²)

Expand to show TLE details & history
Last TLE update: 2 days ago

TLE from 2 days ago
0 STARLINK-31358
1 58977U 24031N   26171.40622339  .00000087  00000-0  15057-4 0  9999
2 58977  53.1593 179.2836 0001168  78.9875 281.1257 15.30191962132245
Epoch: 2026-06-20T09:44Z
TLE epoch observation values (Epoch: 2026-06-20T09:44:57.700Z)
Latitude
-0.00005°
Longitude
124.42184°
Altitude
475.984 km
Speed
7.629 km/s
True Right ascension
11h 57m 08s
True Declination
0° 00' 00"
Sunlit
Object was in daylight at epoch
Visualization orbit readout
Latitude
Unknown
Longitude
Unknown
Altitude
Unknown
Speed
Unknown
Apparent Right ascension
Unknown
Apparent Declination
Unknown
Sunlit
N/A
Visualization observer readout
Local Sidereal Time
21:30:27
Azimuth
Unknown
Elevation
Unknown
Doppler factor
Unknown
Orbital elements
Apogee altitude
476.296 km
Perigee altitude
474.695 km
Semi-major axis
6,853.633 km
Eccentricity
0.00012
Inclination
53.1593°
RAAN
179.2836°
Arg. of periapsis
78.9875°
True anomaly
281.11257°
Mean anomaly
281.1257°
Eccentric anomaly
281.11913°
Mean motion
3.82527 °/min
Orbital period
94.11 mins
BSTAR
0.000015057
Loading maneuver chart data...
Computing Atmospheric mass density...
Loading historical data...
Loading historical data...
Loading historical data...
Loading historical data...
Loading historical data...
Loading historical data...
Loading historical data...

Documentation

Showing up to 5 results
|